Date,TemperatureHighF,TemperatureAvgF,TemperatureLowF,DewpointHighF,DewpointAvgF,DewpointLowF,HumidityHigh,HumidityAvg,HumidityLow,PressureMaxIn,PressureMinIn,WindSpeedMaxMPH,WindSpeedAvgMPH,GustSpeedMaxMPH,PrecipitationSumIn
2013-1-1,57.6,54.2,51.3,51.4,49.1,45.8,92,83,75,30.14,29.94,11,4,18,0.02
2013-1-2,53.6,49.4,42.5,51.6,46.7,39.1,94,90,85,30.20,29.88,8,4,14,0.19
2013-1-3,43.2,40.9,35.7,39.9,37.3,33.3,91,87,81,30.27,30.12,7,4,12,0.07
2013-1-4,51.7,41.0,32.0,39.2,33.2,29.8,92,76,47,30.34,30.21,9,3,16,0.01
2013-1-5,48.0,40.4,31.0,37.5,31.2,27.6,88,71,47,30.42,30.29,6,3,11,0.00
2013-1-6,50.5,47.7,43.6,46.5,42.6,38.8,89,83,69,30.25,30.09,6,2,8,0.00
2013-1-7,52.0,45.6,37.2,43.7,38.9,33.6,92,78,56,30.44,30.15,11,6,18,0.00
2013-1-8,58.2,49.6,40.2,51.5,44.3,34.3,89,82,74,30.45,30.36,8,5,15,0.00
2013-1-9,62.4,56.3,50.3,55.4,52.1,47.6,91,86,78,30.42,30.35,5,2,8,0.00
2013-1-10,61.3,55.2,49.4,54.3,49.3,40.3,93,81,62,30.50,30.40,10,5,16,0.00
2013-1-11,64.7,55.9,49.4,61.8,52.5,42.5,93,88,77,30.42,30.18,8,4,14,0.09
2013-1-12,63.2,59.9,55.4,58.6,56.2,53.1,92,88,83,30.14,30.09,4,1,7,0.00
2013-1-13,64.9,57.6,53.8,60.5,55.1,51.8,94,91,84,30.17,30.09,5,2,9,0.01
2013-1-14,68.1,59.5,55.4,63.1,57.1,53.6,94,92,82,30.19,30.10,4,2,12,0.01
2013-1-15,59.9,55.7,54.1,58.2,54.0,52.4,94,94,93,30.17,30.06,9,5,15,0.01
2013-1-16,64.7,59.4,54.5,60.9,56.8,52.8,95,91,85,30.07,29.95,5,2,14,0.01
2013-1-17,69.4,55.5,41.0,63.8,53.2,39.4,94,92,79,29.98,29.75,17,5,25,1.17
2013-1-18,49.5,23.5,-37.0,40.0,0.7,-99.9,94,54,48,30.52,29.95,17,-1,27,0.01
2013-1-19,54.7,41.5,33.5,47.1,26.8,-99.9,93,70,52,30.49,30.19,6,-78,9,0.00
2013-1-20,65.9,53.4,44.5,49.8,42.8,35.8,92,71,33,30.19,29.98,11,3,18,0.00
2013-1-21,46.9,-53.7,-90.0,40.2,-70.0,-99.9,80,16,70,30.06,29.88,15,-73,21,0.00
2013-1-22,-90.0,-90.0,-90.0,-99.9,-99.9,-99.9,0,0,100,30.27,29.94,13,1,22,0.00
2013-1-23,-90.0,-84.2,-90.0,-99.9,-99.9,-99.9,0,0,100,30.41,30.16,6,0,19,0.00
2013-1-24,-90.0,-47.9,-90.0,-99.9,-99.9,-99.9,0,0,100,30.54,30.02,18,13,31,0.00
2013-1-25,-200.0,0.0,200.0,-99.9,-99.9,-99.9,0,0,100,30.55,30.52,11,7,15,0.00
2013-2-8,52.5,-8.1,-63.7,45.8,-33.1,-99.9,82,37,77,30.00,29.91,9,6,17,0.30
2013-2-9,54.0,41.9,35.5,43.1,21.0,-99.9,86,55,33,30.36,30.00,12,-71,20,0.00
2013-2-10,53.6,41.5,35.7,50.3,26.2,-99.9,89,72,70,30.47,30.26,8,-96,14,0.01
2013-2-11,64.8,56.8,52.8,60.8,53.9,49.4,94,90,84,30.30,29.96,18,5,26,0.10
2013-2-12,62.0,56.9,51.4,58.4,51.7,45.0,91,83,58,30.08,29.93,10,4,22,0.18
2013-2-13,59.5,51.8,48.4,56.1,48.8,45.3,93,90,79,29.98,29.64,17,5,35,0.24
2013-2-14,51.6,47.4,40.8,48.1,40.9,36.9,89,78,64,30.09,29.81,8,4,18,0.00
2013-2-15,54.9,47.1,38.3,44.9,40.5,35.6,90,79,58,30.10,29.96,7,3,13,0.00
2013-2-16,50.5,41.8,33.4,43.2,38.0,31.4,93,87,75,29.96,29.71,15,5,27,0.06
2013-2-17,39.7,33.8,28.2,32.5,23.3,13.5,93,68,36,30.30,29.88,16,8,28,0.00
2013-2-18,49.5,38.5,27.1,41.9,25.8,16.3,81,61,42,30.48,30.30,8,3,15,0.00
2013-2-19,59.2,53.4,46.4,53.9,49.1,40.6,90,85,74,30.32,29.93,17,4,29,0.08
2013-2-20,56.1,46.9,38.5,45.0,35.1,17.2,90,68,22,30.13,29.98,8,4,17,0.00
2013-2-21,52.2,43.4,33.3,41.0,32.3,22.1,86,65,36,30.25,30.10,9,4,13,0.00
2013-2-22,52.1,45.1,39.8,49.6,38.3,27.4,91,77,60,30.33,30.04,11,7,18,0.00
2013-2-23,53.7,47.7,44.2,51.4,45.8,42.6,94,93,91,30.04,29.81,9,3,14,0.41
2013-2-24,64.3,51.5,45.9,51.8,47.0,44.2,94,86,53,29.99,29.76,10,4,16,0.00
2013-2-25,47.1,43.2,38.4,44.3,35.7,31.5,91,75,62,30.18,29.98,12,6,21,0.01
2013-2-26,59.3,53.2,42.0,57.6,50.5,34.3,94,90,74,30.09,29.61,18,9,25,0.62
2013-2-27,60.3,53.0,48.9,57.5,46.6,41.3,93,79,56,29.82,29.63,15,7,26,0.00
2013-2-28,57.3,49.1,40.9,45.5,39.9,34.2,88,72,44,29.85,29.70,12,6,21,0.00
2013-3-1,54.8,44.7,35.6,40.2,33.6,30.7,83,66,43,29.91,29.81,9,4,16,0.00
2013-3-2,50.9,42.3,34.8,34.7,32.2,28.3,88,69,47,29.91,29.80,8,4,15,0.00
2013-3-3,47.7,39.5,31.2,32.2,27.5,23.2,81,64,43,29.97,29.85,10,6,28,0.00
2013-3-4,50.3,38.6,29.3,31.8,23.7,18.6,75,57,30,30.13,29.97,13,6,22,0.00
2013-3-5,57.9,49.9,39.4,51.8,40.6,24.2,90,71,52,30.14,29.66,6,3,13,0.09
2013-3-6,57.8,49.0,42.9,54.0,36.7,26.5,90,64,43,29.96,29.53,23,15,41,0.00
2013-3-7,55.3,45.0,35.1,35.7,32.9,30.5,84,64,44,30.19,29.95,15,7,24,0.00
2013-3-8,55.8,44.3,33.4,32.4,30.5,28.1,84,61,37,30.24,30.10,15,7,26,0.00
2013-3-9,62.5,48.6,37.2,46.6,36.3,30.4,88,65,39,30.30,30.22,10,5,18,0.00
2013-3-10,55.5,49.0,40.8,48.8,42.2,34.4,91,78,53,30.33,30.25,9,3,13,0.00
2013-3-11,59.6,54.1,47.3,54.6,50.7,44.8,92,88,82,30.26,29.97,12,5,16,0.00
2013-3-12,60.4,57.6,55.5,58.3,55.0,53.1,93,91,87,29.97,29.77,14,4,18,1.41
2013-3-13,61.3,53.4,43.3,56.3,37.8,29.1,92,58,30,30.06,29.87,12,6,22,0.00
2013-3-14,52.7,43.6,33.7,33.7,26.1,21.0,66,51,33,30.24,30.06,14,7,25,0.00
2013-3-15,55.4,47.2,34.7,46.6,34.3,21.5,79,62,32,30.22,29.96,8,4,20,0.00
2013-3-16,72.7,59.9,53.5,53.8,49.6,44.1,82,70,43,29.96,29.73,11,6,20,0.00
2013-3-17,61.1,54.9,48.7,52.6,49.6,44.4,89,82,65,30.11,29.85,15,7,23,0.00
2013-3-18,58.8,52.2,47.8,53.2,48.4,43.5,92,87,79,30.12,29.88,9,4,18,0.00
2013-3-19,69.4,57.8,52.6,55.8,51.1,37.8,93,80,43,29.97,29.73,11,5,19,0.40
2013-3-20,55.9,50.6,44.4,40.7,28.7,17.0,84,44,25,30.11,29.81,9,4,16,0.00
2013-3-21,52.6,44.6,36.7,39.9,29.0,18.9,88,58,29,29.96,29.69,13,6,28,0.00
2013-3-22,49.2,39.9,29.3,36.4,24.4,15.4,71,54,30,30.11,29.96,9,4,20,0.00
2013-3-23,54.4,47.4,39.9,43.1,36.9,30.2,86,67,42,30.06,29.92,5,3,9,0.00
2013-3-24,54.4,47.2,43.9,52.4,43.0,38.9,93,86,67,29.94,29.54,25,8,37,0.71
2013-3-25,51.7,48.5,43.7,40.4,34.3,31.0,70,58,48,29.83,29.61,17,9,28,0.00
2013-3-26,49.1,43.5,35.1,34.8,30.8,27.8,75,61,46,30.10,29.83,11,7,21,0.00
2013-3-27,55.5,45.3,35.0,33.7,29.7,26.2,80,57,33,30.20,30.10,12,7,25,0.00
2013-3-28,56.7,45.7,33.6,37.7,29.5,26.8,78,55,33,30.24,30.13,12,6,23,0.00
2013-3-29,54.6,47.5,35.9,43.6,34.4,28.0,79,61,37,30.32,30.19,11,4,17,0.00
2013-3-30,59.2,52.9,47.4,51.4,46.2,40.3,85,78,67,30.24,30.12,12,3,19,0.00
2013-3-31,62.0,57.3,53.4,56.1,52.7,48.4,89,85,77,30.12,29.85,10,4,19,0.06
2013-4-1,66.3,59.2,55.8,60.8,55.5,52.9,91,88,69,29.89,29.81,13,3,21,0.03
2013-4-2,57.3,53.5,46.8,54.0,42.1,33.9,91,66,43,30.13,29.89,11,6,19,0.00
2013-4-3,54.0,51.0,48.6,48.8,41.0,32.6,88,70,46,30.28,30.10,9,5,19,0.00
2013-4-4,59.7,50.8,47.3,58.0,45.8,37.8,94,83,67,30.29,29.76,18,10,32,1.25
2013-4-5,58.5,49.8,42.4,56.8,46.8,40.8,94,89,75,30.01,29.76,11,5,21,0.00
2013-4-6,60.9,51.8,44.3,49.0,44.4,37.6,93,77,44,30.27,30.00,14,7,21,0.01
2013-4-7,59.9,52.8,42.9,55.7,48.8,39.6,92,86,75,30.27,30.15,7,4,17,0.00
2013-4-8,67.2,61.3,56.6,60.3,56.8,53.4,91,85,78,30.20,30.11,8,3,17,0.00
2013-4-9,70.2,62.7,56.8,63.3,58.7,54.5,92,87,78,30.22,30.11,6,2,13,0.00
2013-4-10,73.0,63.6,58.6,65.0,59.5,56.6,94,87,72,30.15,30.02,8,3,15,0.01
2013-4-11,70.7,63.5,58.5,64.9,60.1,56.1,93,89,81,30.03,29.87,7,2,14,0.01
2013-4-12,66.7,62.8,60.3,63.9,60.4,58.0,93,92,89,29.88,29.68,8,4,17,1.44
2013-4-13,65.8,60.2,56.1,62.1,54.9,47.3,94,83,56,30.02,29.74,12,5,19,0.00
2013-4-14,66.8,60.6,52.1,60.2,56.0,50.1,93,85,68,30.11,30.01,8,2,9,0.01
2013-4-15,69.2,63.5,58.0,62.5,59.4,55.7,93,87,78,30.18,29.94,22,7,36,0.30
2013-4-16,70.5,64.0,59.1,64.6,60.3,56.8,93,88,80,30.26,30.16,7,4,11,0.00
2013-4-17,71.1,65.4,59.1,65.2,61.1,56.5,91,86,79,30.23,30.14,6,2,9,0.00
2013-4-18,71.5,67.1,63.8,65.6,62.9,60.5,90,87,80,30.19,30.07,14,4,22,0.02
2013-4-19,73.2,69.0,65.5,68.5,65.5,62.7,91,89,85,30.07,29.87,12,6,20,0.41
2013-4-20,66.7,57.7,50.8,64.6,51.0,44.1,93,79,61,30.24,29.86,13,6,22,0.60
2013-4-21,60.7,54.4,47.1,50.2,45.3,38.6,89,72,56,30.43,30.24,18,10,28,0.00
2013-4-22,60.7,51.8,44.1,53.4,46.9,39.6,90,83,70,30.39,30.15,16,11,26,0.00
2013-4-23,66.8,56.5,50.8,56.7,51.5,48.3,91,84,63,30.19,30.10,12,8,22,0.00
2013-4-24,68.3,61.0,50.7,62.2,57.1,48.3,93,87,81,30.19,30.05,8,4,15,0.00
2013-4-25,70.2,62.8,54.9,62.5,58.1,50.5,92,85,70,30.26,30.05,16,6,22,0.00
2013-4-26,66.7,58.4,50.4,54.8,50.7,45.9,88,76,49,30.38,30.24,11,6,17,0.00
2013-4-27,66.0,61.4,54.0,56.8,53.2,48.3,89,75,57,30.36,30.27,12,7,17,0.00
2013-4-28,66.0,62.9,60.9,59.8,56.6,52.5,87,80,68,30.26,30.10,10,7,17,0.00
2013-4-29,68.1,64.0,62.1,64.4,60.6,59.0,92,89,84,30.10,29.97,11,4,15,1.19
2013-4-30,69.5,64.6,60.7,64.5,60.9,58.4,93,88,80,30.10,29.97,8,3,13,0.00
2013-5-1,71.4,63.9,58.8,63.7,59.8,55.9,91,87,71,30.22,30.07,10,6,19,0.03
2013-5-2,68.5,63.5,58.9,62.2,59.5,55.1,92,87,75,30.25,30.17,13,8,20,0.08
2013-5-3,66.6,60.8,55.7,60.2,54.5,47.9,90,80,62,30.18,30.12,17,10,26,0.00
2013-5-4,66.5,59.4,53.9,58.4,54.2,49.8,90,83,69,30.12,30.00,16,10,24,0.00
2013-5-5,67.2,61.6,55.2,62.5,57.8,52.0,91,88,83,30.01,29.92,15,10,23,0.06
2013-5-6,68.8,65.9,62.9,64.0,61.7,59.4,91,86,82,29.94,29.84,15,7,26,0.26
2013-5-7,69.9,63.6,57.2,59.6,56.5,53.4,88,78,64,29.96,29.84,11,4,19,0.00
2013-5-8,70.1,65.7,58.8,63.4,60.3,55.6,90,83,69,30.02,29.92,9,4,18,0.00
2013-5-9,74.4,69.0,61.1,66.4,62.9,57.7,89,81,71,30.07,29.96,5,2,12,0.00
2013-5-10,76.1,69.7,63.6,68.4,64.6,60.3,90,84,74,30.08,29.99,7,3,14,0.00
2013-5-11,75.8,70.2,66.9,70.3,66.1,64.0,91,87,77,30.02,29.83,7,3,16,0.02
2013-5-12,81.6,73.1,65.4,67.0,60.7,50.0,90,68,38,29.95,29.77,12,5,19,0.00
2013-5-13,71.0,62.6,55.5,50.0,43.7,37.0,67,51,30,30.11,29.96,12,7,21,0.00
2013-5-14,70.8,60.7,49.1,54.8,44.2,35.2,73,56,29,30.24,30.12,11,5,17,0.00
2013-5-15,74.4,69.1,64.1,65.1,62.0,54.6,86,78,69,30.14,29.95,7,4,17,0.00
2013-5-16,80.2,72.7,66.6,68.7,65.4,61.1,87,78,61,29.99,29.91,7,4,14,0.00
2013-5-17,86.1,74.1,68.8,69.5,66.7,62.5,87,78,46,30.09,29.98,8,4,14,0.00
2013-5-18,77.4,71.8,67.8,70.7,67.4,63.2,91,86,80,30.17,30.09,8,3,13,0.00
2013-5-19,78.5,72.2,69.0,71.6,68.3,66.2,91,88,79,30.16,30.08,7,3,10,0.00
2013-5-20,78.9,73.5,70.4,71.5,68.8,66.7,89,85,77,30.14,30.05,13,4,20,0.00
2013-5-21,79.3,73.0,69.9,71.9,68.7,66.8,91,87,77,30.07,29.98,7,3,14,0.00
2013-5-22,78.8,73.7,68.5,72.1,69.2,65.1,91,86,80,30.05,29.96,9,4,14,0.01
2013-5-23,76.9,72.8,69.3,71.4,68.9,66.2,91,88,83,29.98,29.83,8,3,14,0.06
2013-5-24,79.1,71.7,59.3,68.6,59.5,43.1,91,68,40,30.13,29.76,15,7,25,0.00
2013-5-25,75.3,61.8,47.0,59.0,45.0,39.7,85,58,30,30.26,30.11,8,4,15,0.00
2013-5-26,70.9,65.8,61.7,55.6,53.8,49.4,79,66,47,30.22,30.17,6,2,12,0.00
2013-5-27,74.9,66.9,56.7,63.3,58.2,50.1,86,74,62,30.27,30.19,7,3,11,0.00
2013-5-28,78.9,73.0,64.9,70.7,67.3,61.3,89,82,74,30.26,30.19,11,3,14,0.00
2013-5-29,79.5,74.5,68.6,71.9,69.0,65.5,90,83,74,30.27,30.17,9,4,12,0.00
2013-5-30,80.5,75.2,68.6,73.8,70.4,65.2,90,85,80,30.26,30.19,9,4,12,0.00
2013-5-31,80.7,76.5,72.1,74.0,71.6,68.7,90,85,76,30.23,30.13,8,4,12,0.00
2013-6-1,81.7,77.2,72.4,73.7,71.3,68.6,88,82,75,30.17,30.07,11,4,16,0.00
2013-6-2,81.1,77.0,72.5,73.9,71.6,69.1,89,84,74,30.09,29.95,9,4,18,0.00
2013-6-3,79.5,73.0,68.1,74.6,70.0,66.0,94,90,85,29.97,29.83,16,3,34,2.21
2013-6-4,79.9,72.9,67.5,73.3,69.3,65.7,94,89,80,30.07,29.89,13,5,19,0.01
2013-6-5,78.0,73.8,69.8,70.4,67.5,64.9,88,81,67,30.09,30.00,11,8,19,0.00
2013-6-6,77.8,75.0,72.2,72.9,71.2,69.2,93,88,83,30.03,29.85,12,7,18,0.53
2013-6-7,81.2,76.9,73.1,74.4,72.7,71.0,93,87,77,29.84,29.57,26,13,42,1.41
2013-6-8,82.4,78.2,74.0,76.5,74.1,70.2,91,87,82,30.09,29.84,9,5,21,0.29
2013-6-9,82.3,77.7,75.1,77.0,74.1,71.7,91,89,84,30.16,30.09,20,6,27,0.01
2013-6-14,80.5,75.7,69.9,62.1,60.5,59.0,75,60,50,30.00,29.84,10,5,18,0.14
2013-6-15,83.2,75.4,63.1,66.2,61.6,55.5,89,64,42,30.11,30.00,9,4,18,0.00
2013-6-16,84.1,76.7,71.5,70.1,67.5,65.7,84,74,59,30.16,30.04,8,4,19,0.00
2013-6-17,85.0,79.0,74.0,74.2,71.5,67.0,87,78,65,30.07,29.96,8,5,20,0.00
2013-6-18,84.4,79.3,75.0,78.2,74.2,70.0,88,84,75,29.99,29.79,10,4,19,0.15
2013-6-19,77.3,73.7,70.8,73.1,69.7,66.1,93,87,80,30.07,29.82,15,6,26,0.99
2013-6-20,80.5,73.5,65.2,70.3,65.2,61.6,91,76,56,30.17,30.06,12,7,19,0.00
2013-6-21,82.2,73.7,63.9,74.5,68.5,60.9,91,84,74,30.18,30.12,13,6,19,0.00
2013-6-22,80.2,75.4,71.2,75.2,71.9,68.8,93,89,84,30.16,30.09,20,11,32,0.63
2013-6-23,82.4,78.0,75.8,76.0,73.7,71.8,90,87,80,30.21,30.14,14,5,22,0.02
2013-6-24,82.4,77.3,73.3,76.7,73.3,69.3,90,88,80,30.23,30.11,7,3,12,0.28
2013-6-25,85.0,78.7,71.3,78.4,74.2,67.9,90,86,77,30.14,30.02,12,3,17,0.17
2013-6-26,88.6,80.1,76.4,77.5,74.5,70.7,90,83,64,30.03,29.92,9,4,22,0.00
2013-6-27,84.2,78.9,72.0,78.3,74.2,67.9,89,86,77,29.93,29.75,11,5,21,0.01
2013-6-28,87.1,81.0,74.0,78.8,76.1,70.1,91,85,76,29.81,29.62,9,5,21,0.01
2013-6-29,82.8,79.0,76.2,76.2,74.4,72.0,89,86,75,29.79,29.64,11,6,22,0.05
2013-6-30,81.0,76.0,70.8,76.2,72.9,68.4,93,90,82,29.89,29.75,20,6,31,1.14
2013-7-1,78.3,76.4,73.3,74.7,73.1,70.5,92,90,87,30.06,29.86,15,8,23,0.55
2013-7-2,82.9,78.4,73.2,77.7,74.6,70.4,93,88,84,30.19,30.05,14,7,21,0.02
2013-7-3,82.8,79.7,76.4,77.6,75.5,72.7,90,87,84,30.25,30.16,14,8,21,0.00
2013-7-4,85.5,81.3,78.1,77.9,75.7,73.9,89,83,74,30.27,30.21,11,7,17,0.00
2013-7-5,84.7,81.4,79.0,77.8,76.0,74.5,88,84,78,30.28,30.19,11,7,16,0.00
2013-7-6,84.8,81.4,78.2,76.8,75.0,73.3,88,81,73,30.25,30.15,9,4,15,0.00
2013-7-7,85.8,81.5,76.7,76.1,74.2,72.5,88,79,69,30.20,30.09,5,3,13,0.00
2013-7-8,86.5,80.4,76.2,76.8,74.5,72.0,88,83,72,30.18,30.15,4,2,10,0.00
2013-7-9,86.4,79.3,75.2,77.6,74.6,71.7,90,86,74,30.18,30.09,8,2,16,0.10
2013-7-10,86.7,81.4,77.2,77.7,75.6,73.1,89,83,73,30.12,29.98,8,3,14,0.00
2013-7-11,85.7,80.1,76.5,77.3,75.0,72.7,89,85,74,30.00,29.88,11,4,18,0.11
2013-7-12,79.2,74.7,71.6,75.3,71.8,68.8,93,91,85,29.98,29.86,10,3,17,1.61
2013-7-13,83.1,78.3,73.4,77.0,73.9,70.9,93,87,79,30.16,29.96,22,8,32,0.13
2013-7-14,83.9,81.0,79.0,77.9,76.1,74.0,89,85,80,30.26,30.16,10,7,16,0.00
2013-7-15,84.5,81.6,79.6,77.6,76.1,74.9,88,83,77,30.27,30.22,9,5,15,0.00
2013-7-16,88.4,81.9,73.4,77.8,75.0,70.7,92,80,65,30.25,30.15,8,3,13,0.00
2013-7-17,88.6,81.9,76.5,79.9,75.6,72.3,88,82,69,30.18,30.08,6,3,13,0.00
2013-7-18,88.6,82.4,75.3,77.9,75.2,72.0,90,80,64,30.12,30.05,8,3,14,0.00
2013-7-19,88.6,82.8,78.3,78.7,76.3,73.8,87,81,71,30.11,30.01,8,4,18,0.00
2013-7-20,88.2,81.9,77.9,79.3,75.5,73.1,88,81,68,30.06,29.96,8,5,19,0.00
2013-7-21,84.9,79.1,76.5,76.6,74.0,71.1,89,85,76,30.02,29.92,8,3,16,0.01
2013-7-22,84.6,79.1,74.8,77.6,74.5,71.8,91,86,76,29.96,29.84,7,3,17,0.00
2013-7-23,83.1,77.5,75.2,75.9,73.4,71.7,90,87,78,29.88,29.81,7,3,13,0.00
2013-7-30,82.3,79.5,78.3,76.1,74.7,74.1,88,85,80,30.12,30.10,3,1,11,0.00
2013-7-31,81.9,79.1,74.8,75.9,74.2,71.4,91,85,72,30.12,30.01,9,4,15,0.00
2013-8-1,82.3,77.1,70.9,76.9,73.6,68.1,94,89,81,30.01,29.88,11,3,17,0.96
2013-8-2,86.8,80.0,75.8,79.0,75.3,72.7,91,86,73,30.01,29.90,8,4,18,0.00
2013-8-3,86.4,82.6,77.7,79.5,77.2,74.9,91,84,78,30.03,29.90,10,3,15,0.00
2013-8-4,87.0,80.4,73.6,78.6,73.4,68.1,90,80,62,30.00,29.85,11,4,18,0.00
2013-8-5,83.7,76.9,70.3,69.1,66.0,61.1,87,70,53,30.07,29.97,9,4,14,0.00
2013-8-6,84.8,79.4,71.8,71.7,68.4,62.6,86,69,57,30.06,29.98,9,3,14,0.00
2013-8-7,84.3,80.1,72.9,75.9,72.9,68.6,87,79,72,30.08,30.01,7,4,13,0.00
2013-8-8,87.7,82.5,77.5,79.1,77.0,74.0,90,84,74,30.05,30.00,9,3,13,0.00
2013-8-9,88.0,83.0,78.7,79.6,77.5,75.2,89,84,75,30.08,30.01,7,4,18,0.00
2013-8-10,87.9,82.7,78.1,79.9,77.2,74.9,90,84,71,30.10,30.01,7,4,16,0.00
2013-8-11,89.2,81.6,77.7,80.4,76.3,73.5,90,84,71,30.10,30.00,11,3,23,0.09
2013-8-12,88.1,83.0,78.8,80.5,77.5,74.9,90,84,75,30.04,29.93,9,4,16,0.03
2013-8-13,88.1,83.2,77.9,80.2,78.0,74.2,89,85,76,29.91,29.77,7,4,16,0.02
2013-8-14,81.1,74.7,68.0,75.9,70.8,63.6,93,88,80,30.03,29.77,14,6,23,0.55
2013-8-15,70.3,66.9,64.3,65.6,63.4,61.6,93,89,78,30.09,30.00,9,6,19,0.67
2013-8-16,74.4,70.3,65.6,69.9,67.1,62.6,92,89,86,30.10,30.01,6,4,12,0.00
2013-8-17,79.0,73.3,68.7,74.7,70.3,65.8,92,91,86,30.11,30.01,10,5,18,0.82
2013-8-18,84.2,77.8,71.6,77.6,73.9,69.5,94,88,78,30.17,30.10,7,2,11,0.01
2013-8-19,81.8,77.0,73.6,76.1,73.7,71.4,93,90,82,30.15,30.06,9,4,15,0.06
2013-8-20,81.7,77.8,73.3,76.7,74.2,71.2,94,89,84,30.15,30.06,9,4,13,0.00
2013-8-21,85.8,80.1,75.0,79.5,75.9,71.5,92,87,79,30.20,30.09,9,3,15,0.01
2013-8-22,86.6,78.4,72.7,78.8,73.8,69.6,92,86,75,30.11,29.99,8,2,14,0.00
2013-8-23,91.1,80.7,74.4,80.1,74.9,70.6,90,83,63,30.01,29.90,10,3,13,0.26
2013-8-24,82.4,74.2,68.3,71.6,67.7,65.3,92,81,61,30.22,29.99,10,6,26,0.05
2013-8-25,81.6,73.2,64.5,68.1,65.3,61.2,89,77,61,30.30,30.21,9,6,13,0.00
2013-8-26,81.2,72.8,63.3,69.5,65.1,60.1,90,78,64,30.26,30.10,8,4,9,0.00
2013-8-27,84.4,76.4,67.6,70.1,66.9,64.2,89,73,55,30.11,29.96,6,4,12,0.00
2013-8-28,76.6,75.6,74.1,68.9,68.1,67.4,83,78,74,30.00,29.95,4,3,8,0.00
2013-8-29,85.9,79.0,75.3,78.3,73.8,71.2,87,84,77,29.95,29.85,11,4,11,0.05
2013-8-30,80.6,75.6,69.1,74.4,71.0,66.4,91,86,76,30.01,29.93,8,5,12,0.00
2013-8-31,84.6,78.5,72.3,77.6,74.2,69.8,92,87,79,29.97,29.88,8,3,9,0.00
2013-9-1,89.4,83.6,77.9,79.6,77.8,74.7,90,83,68,29.93,29.82,8,5,14,0.00
2013-9-2,87.6,81.2,77.0,80.3,76.8,72.2,89,87,75,29.89,29.79,12,4,14,0.78
2013-9-3,85.9,78.9,69.6,79.0,74.4,67.2,94,86,78,29.92,29.80,18,4,26,0.19
2013-9-4,81.6,76.7,69.6,76.0,72.5,67.3,94,87,80,30.05,29.91,7,3,9,0.00
2013-9-5,86.8,80.8,74.9,78.8,76.2,72.7,93,86,74,30.06,29.98,9,2,10,0.01
2013-9-6,85.4,76.0,68.5,75.8,70.8,64.8,92,85,63,30.08,30.00,14,5,17,0.63
2013-9-7,72.1,71.0,69.8,68.3,67.4,66.1,89,88,88,30.06,30.05,6,5,9,0.00
2013-9-8,84.4,81.7,77.1,74.2,72.7,67.8,83,74,67,29.96,29.88,5,3,8,0.00
2013-9-9,82.6,79.0,72.7,75.4,72.7,69.3,89,81,72,30.13,29.96,9,4,12,0.00
2013-9-10,83.2,79.0,73.2,75.5,72.9,69.7,90,82,67,30.20,30.12,10,5,13,0.00
2013-9-11,83.3,78.1,71.2,73.9,71.7,68.2,91,81,64,30.19,30.07,6,3,9,0.00
2013-9-12,85.6,78.4,70.8,76.2,72.5,67.8,91,82,71,30.07,29.81,8,3,11,0.00
2013-9-13,87.2,79.5,73.6,75.7,72.3,67.3,87,79,61,29.81,29.71,8,4,12,0.00
2013-9-14,78.4,73.2,66.2,69.4,65.4,60.1,88,77,65,30.08,29.78,11,6,14,0.00
2013-9-15,78.8,73.7,65.9,72.4,67.4,62.9,90,81,71,30.19,30.08,10,7,15,0.00
2013-9-16,86.5,77.7,71.5,77.1,72.6,66.6,92,85,72,30.12,30.00,14,3,16,0.87
2013-9-17,77.3,70.3,64.3,67.1,62.4,57.0,88,77,60,30.23,30.09,13,8,17,0.00
2013-9-18,77.1,67.3,57.0,65.5,59.4,53.2,88,76,63,30.22,30.12,10,6,16,0.00
2013-9-19,76.8,69.2,61.3,64.1,59.1,54.3,89,72,48,30.16,30.06,7,3,9,0.00
2013-9-20,75.3,69.2,62.6,66.7,63.0,58.3,91,81,56,30.08,29.95,7,2,8,0.00
2013-9-21,77.9,72.4,66.7,73.0,68.5,63.7,93,88,81,29.95,29.73,8,3,10,0.84
2013-9-22,80.0,75.5,70.6,73.2,71.0,67.2,91,86,78,29.72,29.63,13,6,17,0.67
2013-9-23,74.1,70.5,60.3,58.3,56.9,55.1,90,64,53,29.99,29.86,7,5,10,0.00
2013-9-24,63.4,62.4,61.1,58.5,58.1,57.1,87,86,84,30.05,30.04,3,2,4,0.00
2013-9-26,76.1,76.0,75.8,63.5,63.4,63.2,65,65,65,29.87,29.87,5,5,6,0.05
2013-9-27,75.7,70.6,64.0,63.0,59.3,55.9,82,68,55,30.10,30.02,11,7,15,0.00
2013-9-28,77.0,68.6,63.2,62.9,60.5,58.3,87,76,56,30.14,30.06,10,6,13,0.00
2013-9-29,76.1,66.8,58.6,66.5,61.2,56.0,92,83,63,30.09,29.97,10,5,13,0.00
2013-9-30,76.8,67.3,58.6,62.0,56.0,45.9,90,70,34,30.05,29.96,8,4,11,0.00
2013-10-1,77.7,68.0,57.6,62.7,58.1,53.8,89,72,51,30.11,30.02,7,3,9,0.00
2013-10-2,81.0,71.9,61.5,69.5,64.7,58.1,89,79,62,30.11,30.03,8,3,11,0.00
2013-10-3,80.1,73.1,65.6,71.6,68.2,62.9,91,85,74,30.13,30.07,8,3,9,0.00
2013-10-4,81.0,75.4,68.2,72.7,70.3,65.5,92,84,73,30.13,30.05,7,2,10,0.00
2013-10-5,80.9,74.5,66.5,72.9,69.6,64.1,93,85,70,30.11,30.04,7,2,8,0.00
2013-10-6,78.7,75.4,72.9,73.9,71.8,69.4,91,88,81,30.05,29.94,11,4,11,1.05
2013-10-7,80.7,77.2,72.8,75.0,72.9,67.3,91,87,79,29.94,29.83,19,6,24,0.17
2013-10-8,73.5,64.1,58.6,71.0,61.8,56.6,93,92,90,30.06,29.87,15,9,21,1.79
2013-10-9,62.8,60.6,58.6,60.4,58.3,56.4,93,92,91,30.02,29.90,17,13,24,0.01
2013-10-10,60.8,58.8,56.7,58.3,56.7,55.3,95,93,90,29.92,29.86,14,9,19,0.00
2013-10-11,66.7,63.2,60.3,62.5,60.3,58.0,93,90,86,29.94,29.86,7,4,11,0.00
2013-10-12,67.3,64.6,62.9,63.6,61.8,60.0,93,91,87,30.02,29.92,7,3,9,0.01
2013-10-13,75.8,69.3,65.6,69.2,65.8,63.2,94,89,79,30.09,30.00,10,5,13,0.00
2013-10-14,73.3,69.6,65.1,67.5,65.4,61.1,90,86,81,30.10,30.04,11,8,17,0.00
2013-10-15,70.6,65.2,61.2,65.2,61.6,58.4,91,88,83,30.09,29.98,11,8,15,0.00
2013-10-16,73.6,68.4,65.4,67.3,64.5,62.5,91,87,80,30.00,29.93,8,4,10,0.00
2013-10-17,75.4,68.9,61.6,68.7,64.7,59.3,93,87,77,29.97,29.86,8,3,10,0.00
2013-10-18,74.1,70.9,67.8,68.8,67.2,64.8,91,88,81,29.99,29.87,8,4,11,0.08
2013-10-19,75.0,71.8,68.5,70.9,69.1,65.5,93,91,86,29.93,29.83,5,1,7,0.11
2013-10-20,69.7,64.0,59.4,65.3,57.4,51.7,89,79,61,30.08,29.86,10,5,15,0.00
2013-10-21,69.7,62.7,55.1,58.9,55.4,51.9,90,78,59,30.12,29.99,7,4,15,0.00
2013-10-22,67.2,63.1,58.0,60.7,57.0,52.5,89,81,73,30.00,29.83,6,2,7,0.03
2013-10-23,71.7,62.8,53.4,60.5,54.4,40.3,92,75,50,29.95,29.66,14,5,17,0.20
2013-10-24,61.2,51.9,41.9,48.6,40.4,35.7,85,67,41,30.16,29.95,10,5,14,0.00
2013-10-25,57.4,50.1,43.8,45.5,38.3,33.6,88,65,41,30.33,30.15,11,5,17,0.00
2013-10-26,64.7,50.0,36.3,47.5,39.0,32.3,86,68,44,30.33,30.10,8,3,9,0.00
2013-10-27,65.8,56.3,47.5,52.0,45.6,40.3,88,68,50,30.14,30.05,7,3,8,0.00
2013-10-28,70.6,60.2,50.8,60.3,53.2,47.7,91,79,59,30.24,30.13,3,1,5,0.00
2013-10-29,69.3,62.9,54.3,61.7,57.1,50.4,90,82,68,30.30,30.22,7,3,9,0.00
2013-10-30,71.3,64.5,55.5,64.1,60.0,52.6,91,85,74,30.30,30.18,6,2,7,0.00
2013-10-31,74.2,66.9,59.0,69.2,63.7,56.7,93,89,84,30.21,29.99,12,3,17,0.00
2013-11-1,73.5,71.1,68.3,69.4,67.5,65.3,91,88,86,29.99,29.73,8,4,11,0.06
2013-11-2,71.9,66.2,59.6,68.7,61.5,52.7,92,85,71,29.88,29.68,12,4,17,0.83
2013-11-3,63.3,55.6,47.7,52.4,45.3,41.4,86,70,45,30.31,29.87,10,6,13,0.00
2013-11-4,59.1,50.8,41.4,46.0,41.6,36.3,89,72,49,30.47,30.31,10,6,16,0.00
2013-11-5,70.9,59.0,45.2,61.8,53.1,41.9,89,81,69,30.44,30.36,12,7,18,0.00
2013-11-6,69.4,63.4,57.7,64.9,59.5,52.3,93,87,81,30.36,30.09,8,4,10,0.08
2013-11-7,71.9,65.9,55.4,65.4,62.3,47.3,94,88,73,30.09,29.89,13,4,15,0.25
2013-11-8,57.3,50.1,43.7,46.4,37.0,31.9,79,62,39,30.30,30.01,13,7,18,0.00
2013-11-9,61.7,52.4,41.5,52.6,43.4,34.6,86,72,48,30.35,30.19,5,3,7,0.00
2013-11-10,70.6,59.0,52.6,54.9,47.7,40.3,86,68,37,30.21,30.07,8,4,10,0.00
2013-11-11,58.9,51.6,43.5,48.1,42.1,35.8,89,71,55,30.31,30.15,11,4,14,0.00
2013-11-12,67.1,51.1,35.6,45.7,39.7,27.1,90,68,40,30.34,30.00,17,7,25,0.00
2013-11-13,45.1,36.7,31.4,30.4,24.4,19.4,90,63,39,30.51,30.33,16,8,22,0.00
2013-11-14,58.6,42.6,29.2,42.2,29.9,22.6,83,64,27,30.53,30.34,5,2,7,0.00
2013-11-15,63.9,55.4,41.5,59.3,50.4,38.1,92,84,62,30.35,30.20,8,4,10,0.01
2013-11-16,66.9,62.5,59.1,62.9,59.7,57.1,94,90,84,30.22,30.16,7,3,9,0.01
2013-11-17,69.3,62.7,56.3,64.6,60.2,54.3,94,91,84,30.18,29.96,11,3,14,0.10
2013-11-18,78.6,68.4,60.1,70.2,64.2,51.4,94,87,73,29.96,29.75,10,4,12,0.00
2013-11-19,60.0,52.6,45.9,50.5,36.9,32.1,79,56,39,30.26,29.88,13,7,17,0.00
2013-11-20,59.1,49.4,41.3,48.6,42.6,35.6,87,77,67,30.37,30.23,9,7,14,0.00
2013-11-21,65.4,56.7,48.3,59.2,52.7,44.6,93,87,78,30.42,30.33,10,6,14,0.00
2013-11-22,67.3,61.0,56.3,62.6,58.0,53.7,93,90,84,30.36,30.10,6,2,6,0.00
2013-11-23,65.2,60.2,51.1,61.4,56.4,40.0,91,88,68,30.10,29.99,11,4,12,0.00
2013-11-24,50.7,38.4,29.4,39.5,19.0,10.9,66,46,29,30.54,30.07,16,10,22,0.00
2013-11-25,42.7,34.3,25.0,34.9,21.9,12.5,83,61,40,30.59,30.35,7,4,10,0.00
2013-11-26,66.0,56.6,39.6,63.9,53.7,35.2,94,90,80,30.34,29.65,19,7,23,0.63
2013-11-27,66.0,54.1,34.5,64.2,51.9,28.3,95,92,78,30.15,29.45,15,8,21,0.69
2013-11-28,43.8,35.8,28.1,34.1,26.5,20.7,86,70,45,30.51,30.15,13,5,15,0.00
2013-11-29,52.5,41.7,33.5,34.8,30.5,27.3,82,66,40,30.57,30.48,10,4,13,0.00
2013-11-30,56.2,44.8,34.5,46.5,38.4,29.1,88,79,67,30.55,30.30,9,5,13,0.00
2013-12-1,56.1,49.4,44.6,50.7,46.3,41.6,94,89,80,30.30,29.99,7,3,9,0.02
2013-12-2,57.1,50.1,44.1,49.2,46.3,41.3,94,87,73,29.99,29.79,8,3,9,0.00
2013-12-3,58.7,50.0,39.8,51.4,45.2,37.1,91,84,66,30.02,29.86,4,2,5,0.00
2013-12-4,65.6,59.3,54.8,63.4,56.8,51.1,94,91,86,30.12,30.00,6,1,7,0.44
2013-12-5,66.7,60.3,52.7,63.6,58.3,51.3,95,93,88,30.18,30.09,3,1,5,0.01
2013-12-6,67.7,62.9,60.1,63.7,60.6,58.2,94,92,86,30.16,30.06,5,2,8,0.01
2013-12-7,63.9,52.9,42.5,61.1,50.8,40.1,95,93,89,30.40,30.06,13,6,18,0.34
2013-12-8,43.7,42.1,40.6,41.2,39.9,38.6,93,92,89,30.39,30.26,9,6,12,0.07
2013-12-9,61.7,51.5,41.8,59.4,49.8,40.0,95,94,89,30.27,30.07,5,2,6,0.01
2013-12-10,70.0,55.0,40.1,65.6,52.4,34.1,95,91,79,30.33,29.87,18,5,24,0.05
2013-12-11,50.8,41.0,32.2,39.2,29.9,22.9,87,66,41,30.48,30.30,9,3,10,0.00
2013-12-12,47.7,40.1,35.1,33.6,29.7,26.1,85,68,43,30.40,30.26,15,5,19,0.00
2013-12-13,50.7,40.0,29.6,37.8,30.0,21.6,88,70,38,30.46,30.33,6,2,9,0.00
2013-12-14,65.8,54.3,40.5,64.0,49.7,34.6,94,84,73,30.33,29.77,20,8,24,0.56
2013-12-15,63.1,54.3,41.8,61.3,50.9,38.5,94,88,77,30.08,29.71,11,4,12,0.05
2013-12-16,57.4,46.0,35.5,47.5,38.8,31.8,89,77,47,30.21,30.08,8,3,10,0.00
2013-12-17,58.8,52.4,44.3,51.0,45.1,38.5,87,77,57,30.19,29.98,12,4,15,0.00
2013-12-18,55.7,45.6,36.6,41.0,33.7,24.7,87,65,36,30.33,30.00,13,5,15,0.00
2013-12-19,58.0,47.3,35.2,48.9,39.3,29.4,91,76,41,30.38,30.29,3,1,7,0.00
2013-12-20,66.4,55.6,45.4,60.6,52.6,43.2,93,90,80,30.28,30.17,4,1,5,0.00
2013-12-21,67.2,60.3,55.8,63.2,57.9,53.5,94,92,85,30.20,30.12,7,1,13,0.02
2013-12-22,69.6,62.7,58.6,65.7,60.1,56.8,94,91,85,30.15,30.10,7,2,10,0.01
2013-12-23,66.5,62.7,58.5,62.8,58.2,52.0,91,85,79,30.14,30.03,10,3,14,0.07
2013-12-24,58.5,46.9,35.5,52.0,40.1,30.8,84,77,61,30.40,30.03,12,7,16,0.18
2013-12-25,43.9,37.4,29.0,34.8,28.1,21.6,84,69,58,30.53,30.37,9,6,13,0.00
2013-12-26,44.4,42.0,38.4,38.9,37.0,34.0,84,82,79,30.36,30.25,10,5,14,0.00
2013-12-27,53.5,43.7,34.9,37.1,34.0,30.6,84,70,43,30.40,30.31,9,4,13,0.00
2013-12-28,56.6,53.7,52.4,47.4,44.5,39.0,79,71,52,30.25,30.13,6,3,8,0.00
2013-12-29,63.6,59.9,52.3,54.8,48.2,36.1,81,66,50,30.12,29.73,14,7,20,0.07
2013-12-30,58.5,51.1,45.4,48.2,37.4,25.3,72,60,41,30.12,29.92,6,2,7,0.01
2013-12-31,53.9,47.7,41.6,41.6,36.2,29.9,76,65,46,30.35,30.08,12,3,18,0.00
2014-1-1,52.7,45.2,38.4,40.8,35.8,29.2,77,70,48,30.41,30.13,5,2,6,0.01
2014-1-2,57.8,51.0,46.5,32.4,-29.7,-99.9,57,16,1,30.13,29.53,14,3,24,0.65